Home > Weather > Krems > Past weeks

Flag for Austria Weather for the Past 2 Weeks in Krems, Lower Austria, Austria

Now
34 °F

Passing clouds.


Feels Like: 30 °F
Forecast: 29 / 46 °F
Wind: 5 mph from East

Location: Vienna Schwechat-Flughafen Airport

Current Time: Feb 12, 2016 at 4:42:57 AM

Latest Report: Feb 12, 2016 at 3:50 AM


Visibility: N/A

Pressure: 29.74 "Hg

Humidity: 87%

Dew point: 30 °F

Location of KremsLocation

Historic Weather in Krems — Graph

°F

Krems Temperature Yesterday

Maximum temperature yesterday: 45 °F (at 11:50 AM)
Minimum temperature yesterday: 36 °F (at 11:50 PM)
Average temperature yesterday: 40 °F

High & Low Weather Summary for the Past Weeks

 TemperatureHumidityPressure
High63 °F (Jan 28, 12:20 PM)100% (Jan 29, 5:50 AM)30.42 "Hg (Jan 29, 5:50 AM)
Low30 °F (Jan 30, 6:20 AM)37% (Jan 28, 12:50 PM)29.30 "Hg (Feb 9, 11:20 PM)
Average44 °F76%29.98 "Hg
* Reported Jan 28 3:20 AM — Feb 12 3:20 AM, Krems, Weather by CustomWeather, © 2016

Note: Actual official high and low records may vary slightly from our data, if they occured in-between our weather recording intervals... More about our weather records

Advertising

Krems Weather History for the Previous 24 Hours

 ConditionsComfort  
Time TempWeatherWind HumidityBarometerVisibility
3:20 AM
Fri, Feb 12
34 °FPassing clouds.2 mph81%29.74 "HgN/A
2:50 AM34 °FPassing clouds.3 mph81%29.77 "HgN/A
2:20 AM32 °FPassing clouds.7 mph87%29.77 "HgN/A
1:50 AM34 °FPassing clouds.9 mph87%29.77 "HgN/A
1:20 AM34 °FPartly cloudy.7 mph87%29.77 "HgN/A
12:50 AM36 °FClear.5 mph81%29.77 "Hg10 mi
12:20 AM36 °FClear.5 mph81%29.77 "Hg10 mi
11:50 PM
Thu, Feb 11
36 °FClear.2 mph81%29.77 "Hg10 mi
10:20 PM37 °FClear.7 mph75%29.77 "Hg10 mi
9:50 PM37 °FClear.8 mph75%29.77 "Hg10 mi
9:20 PM37 °FClear.7 mph75%29.77 "Hg10 mi
8:50 PM37 °FClear.6 mph70%29.77 "Hg10 mi
8:20 PM39 °FClear.8 mph65%29.77 "Hg10 mi
7:50 PM39 °FClear.7 mph65%29.77 "Hg10 mi
7:20 PM39 °FClear.8 mph65%29.77 "Hg10 mi
6:50 PM37 °FPassing clouds.7 mph75%29.77 "HgN/A
6:20 PM39 °FPassing clouds.9 mph70%29.77 "HgN/A
5:50 PM39 °FPassing clouds.13 mph70%29.77 "HgN/A
5:20 PM41 °FPassing clouds.12 mph66%29.77 "HgN/A
4:50 PM41 °FScattered clouds.12 mph66%29.77 "HgN/A
4:20 PM43 °FPartly sunny.16 mph61%29.77 "HgN/A
3:50 PM43 °FScattered clouds.18 mph61%29.74 "HgN/A
3:20 PM45 °FPassing clouds.20 mph57%29.74 "HgN/A
2:50 PM45 °FPassing clouds.20 mph53%29.74 "HgN/A
2:20 PM45 °FPassing clouds.22 mph57%29.74 "HgN/A
1:50 PM45 °FScattered clouds.20 mph57%29.74 "HgN/A
1:20 PM45 °FScattered clouds.20 mph57%29.74 "HgN/A
12:50 PM45 °FScattered clouds.20 mph57%29.71 "HgN/A
12:20 PM45 °FBroken clouds.22 mph57%29.74 "HgN/A
11:50 AM45 °FBroken clouds.21 mph57%29.71 "HgN/A
11:20 AM43 °FBroken clouds.23 mph61%29.71 "HgN/A
10:50 AM43 °FBroken clouds.23 mph61%29.71 "HgN/A
10:20 AM41 °FPartly sunny.18 mph66%29.71 "HgN/A
9:50 AM41 °FPartly sunny.21 mph66%29.71 "HgN/A
9:20 AM41 °FPartly sunny.17 mph61%29.68 "HgN/A
8:50 AM41 °FPartly sunny.17 mph61%29.68 "HgN/A
8:20 AM41 °FPartly sunny.17 mph61%29.68 "HgN/A
7:50 AM39 °FPartly sunny.15 mph65%29.65 "HgN/A
7:20 AM39 °FBroken clouds.14 mph65%29.65 "HgN/A
6:50 AM39 °FPassing clouds.22 mph65%29.62 "HgN/A
6:20 AM39 °FPassing clouds.22 mph65%29.62 "HgN/A
5:50 AM39 °FPassing clouds.18 mph65%29.62 "HgN/A
5:20 AM39 °FPartly cloudy.21 mph65%29.62 "HgN/A
4:50 AM39 °FPartly cloudy.18 mph65%29.62 "HgN/A
4:20 AM39 °FPassing clouds.22 mph65%29.59 "HgN/A
Weather by CustomWeather, © 2016

See weather overviewHow to use our weather pages